DMSP 5D-2 F13 DEB, 40436

Orbit data source: Space-Track

DMSP 5D-2 F13 DEB, 40436 is space debris in SSO originally from a launch on Fri, 24 Mar 1995 UTC launched from the Air Force Western Test Range (AFWTR). Debris objects in space refer to the collection of defunct objects orbiting the Earth. Examples of debris include non-operational satellites, rocket bodies, and fragments generated from explosions, collisions, or faulty payload assembly.

Loading next visibility...
Identifier
40436, 1995-015AN
Orbit
SSO
Country
Flag of USUS
Related business
Manufacturer
Unknown
Mission
Spacecraft
Bus & Motor
Unknown
Mass
Unknown
Launch date (UTC)
1995-03-24 (30 years ago)
Launch vehicle
Unknown
Launch site
Air Force Western Test Range (AFWTR)
Object type
Payload
Rocket body
Debris
Shape & HBR
Unknown
Radar Cross Section
Small (<0.1 m²)

Expand to show TLE details & history
Last TLE update: 2 days ago

TLE from 2 days ago
0 DMSP 5D-2 F13 DEB
1 40436U 95015AN  25259.20884583  .00000500  00000-0  49660-3 0  9991
2 40436  98.8789 353.3461 0230794 132.3272 229.7685 13.71294531526725
Epoch: 2025-09-16T05:00Z
TLE epoch observation values (Epoch: 2025-09-16T05:00:44.279Z)
Latitude
0.00001°
Longitude
-77.24084°
Altitude
1,109.939 km
Speed
7.242 km/s
True Right ascension
23h 33m 23s
True Declination
0° 00' 00"
Sunlit
Object was in full shadow at epoch
Visualization orbit readout
Latitude
Unknown
Longitude
Unknown
Altitude
Unknown
Speed
Unknown
Apparent Right ascension
Unknown
Apparent Declination
Unknown
Sunlit
N/A
Visualization observer readout
Local Sidereal Time
09:20:28
Azimuth
Unknown
Elevation
Unknown
Doppler factor
Unknown
Orbital elements
Apogee altitude
1,162.259 km
Perigee altitude
822.055 km
Semi-major axis
7,370.294 km
Eccentricity
0.02308
Inclination
98.8789°
RAAN
353.3461°
Arg. of periapsis
132.3272°
True anomaly
227.78678°
Mean anomaly
229.7685°
Eccentric anomaly
228.77394°
Mean motion
3.43017 °/min
Orbital period
104.95 mins
BSTAR
0.0004966
Loading maneuver chart data...
Computing Atmospheric mass density...

Documentation

Showing up to 5 results
|